SCP
0 0 0 0 0 0 0 0 0 0 0 0 0 0 0 0 0 0 0 0 0 0 0 0 0 0 0 0 0 0 0 0 0 0 0 0 0 0 0 0 0 0 0
0 0 0 0 0 0 0 0 0 0 0 0 0 0 0 0 0 0 0 0 0 0 0 0 0 0 0 0 0 0 0 0 0 0 0 0 0 0 0 0 0 0 0
0 0 0 0 0 0 0 0 0 0 0 0 0 0 0 0 0 0 0 0 0 0 0 0 0 0 0 0 0 0 0 0 0 0 0 0 0 0 0 0 0 0 0
0 0 0 0 0 0 0 0 0 0 0 0 0 0 0 0 0 0 0 0 0 0 0 0 0 0 0 0 0 0 0 0 0 0 0 0 0 0 0 0 0 0 0
0 0 0 0 0 0 0 0 0 0 0 0 0 0 0 0 0 0 0 0 0 0 0 0 0 0 0 0 0 0 0 0 0 0 0 0 0 0 0 0 0 0 0
0 0 0 0 0 0 0 0 0 0 0 0 0 0 0 0 0 0 0 0 0 0 0 0 0 0 0 0 0 0 0 0 0 0 0 0 0 0 0 0 0 0 0
0 0 0 0 0 0 0 0 0 0 0 0 0 0 0 0 0 0 0 0 0 0 0 0 0 0 0 0 0 0 0 0 0 0 0 0 0 0 0 0 0 0 0
0 0 0 0 0 0 0 0 0 0 0 0 0 0 0 0 0 0 0 0 0 0 0 0 0 0 0 0 0 0 0 0 0 0 0 0 0 0 0 0 0 0 0
0 0 0 0 0 0 0 0 0 0 0 0 0 0 0 0 0 0 0 0 0 0 0 -0 0 0 0 0 0 0 0 0 0 0 0 0 0 0 0 0 0 0 0
0 0 0 0 0 0 0 0 0 0 0 0 0 0 0 0 0 0 0 0 0 0 0 0 0 0 0 0 0 0 0 0 0 0 0 0 0 0 0 0 0 0 0
0 0 0 0 0 0 0 0 0 0 0 0 0 0 0 0 0 0 0 0 0 0 0 0 0 0 0 0 0 0 0 0 0 0 0 0 0 0 0 0 0 0 0
0 0 0 0 0 0 0 0 0 0 0 0 0 0 0 0 0 0 0 0 0 0 0 0 0 0 0 0 0 0 0 0 0 0 0 0 0 0 0 0 0 0 0
0 0 0 0 0 0 0 0 0 0 0 0 0 0 0 0 0 0 0 0 0 0 0 0 0 0 0 0 0 0 0 0 0 0 0 0 0 0 0 0 0 0 0
0 0 0 0 0 0 0 0 0 0 0 0 0 0 0 0 0 0 0 0 0 0 0 0 0 0 0 0 0 0 0 0 0 0 0 0 0 0 0 0 0 0 0
0 0 0 0 0 0 0 0 0 0 0 0 0 0 0 0 0 0 0 0 0 0 0 0 0 0 0 0 0 0 0 0 0 0 0 0 0 0 0 0 0 0 0
0 0 0 0 0 0 0 0 0 0 0 0 0 0 0 0 0 0 0 0 0 0 0 0 0 0 0 0 0 0 0 0 0 0 0 0 0 0 0 0 0 0 0
0 0 0 0 0 0 0 0 0 0 0 0 0 0 0 0 0 0 0 0 0 0 0 0 0 0 0 0 0 0 0 0 0 0 0 0 0 0 0 0 0 0 0
0 0 0 0 0 0 0 0 0 0 0 0 0 0 0 0 0 0 0 0 0 0 0 0 0 0 0 0 0 0 0 0 0 0 0 0 0 0 0 0 0 0 0
0 0 0 0 0 0 0 0 0 0 0 0 0 0 0 0 0 0 0 0 0 0 0 0 0 0 0 0 0 0 0 0 0 0 0 0 0 0 0 0 0 0 0
0 0 0 0 0 0 0 0 0 0 0 0 0 0 0 0 0 0 0 0 0 0 0 0 0 0 0 0 0 0 0 0 0 0 0 0 0 0 0 0 0 0 0
0 0 0 0 0 0 0 0 0 0 0 0 0 0 0 0 0 0 0 0 0 0 0 0 0 0 0 0 0 0 0 0 0 0 0 0 0 0 0 0 0 0 0
0 0 0 0 0 0 0 0 0 0 0 0 0 0 0 0 0 0 0 0 0 0 0 0 0 0 0 0 0 0 0 0 0 0 0 0 0 0 0 0 0 0 0
0 0 0 0 0 0 0 0 0 0 -0 -0 -0 0 0 0 0 0 0 0 0 0 0 0 0 0 0 0 0 0 0 0 0 0 0 0 0 0 0 0 0 0 0
0 0 0 0 0 0 0 0 0 0 -0 -0 -0 0 0 0 0 0 0 0 0 0 0 0 0 0 0 0 0 0 0 0 0 0 0 0 0 0 0 0 0 0 0
0 0 0 0 0 0 0 0 0 0 -0 -0 0 0 -0 0 0 0 0 0 0 0 0 0 0 0 0 0 0 0 0 0 0 0 0 0 0 0 0 0 0 0 0
0 0 0 0 0 0 0 0 0 0 0 0 0 0 -0 -0 -0 -0 0 0 0 0 0 0 0 0 0 0 0 0 0 0 0 0 0 0 0 0 0 0 0 0 0
Wind_Speed
1 1 2 2 2 2 2 2 2 1 1 1 1 1 1 0 1 1 2 2 2 2 1 1 1 1 2 1 1 1 1 1 1 2 2 2 2 1 1 0 1 1 1
1 1 1 2 2 1 1 2 2 1 1 1 1 1 1 0 0 1 1 2 2 2 1 1 1 1 1 1 1 1 1 0 0 2 1 1 2 2 2 1 0 0 1
4 2 1 1 1 1 1 1 1 1 1 1 1 1 2 1 1 1 1 1 1 1 1 1 0 1 1 1 1 2 2 1 1 0 2 2 3 2 2 1 1 1 1
3 3 2 1 1 1 1 1 1 1 1 1 2 2 1 1 1 1 1 1 1 1 1 1 0 0 1 1 1 1 1 2 1 1 1 1 1 2 1 2 1 1 1
4 3 3 2 1 0 1 0 1 1 1 1 1 2 1 0 1 1 1 1 1 1 1 1 1 1 1 1 1 1 1 1 2 1 1 1 1 1 2 3 2 2 2
3 3 2 2 1 1 1 1 1 0 1 1 1 1 1 0 0 1 1 1 1 1 1 1 1 1 1 1 2 2 2 2 2 2 1 1 2 2 2 2 3 3 3
4 3 2 2 1 0 0 0 0 0 0 1 1 1 1 1 2 2 2 1 1 1 1 1 1 1 2 2 2 2 2 2 2 3 2 2 2 2 2 2 2 2 3
3 3 3 3 2 1 1 0 0 0 0 0 1 1 1 1 1 2 2 2 2 2 2 2 2 2 2 2 2 2 2 2 3 3 3 2 2 2 2 2 2 2 2
2 2 2 2 2 1 1 1 1 1 1 1 0 1 1 1 1 2 2 2 2 2 2 2 3 2 2 2 2 2 2 2 3 3 3 3 2 2 2 2 3 3 3
1 1 1 1 1 1 1 0 0 1 1 1 1 1 1 1 1 1 2 2 3 2 3 3 2 2 2 3 3 3 2 2 3 2 3 3 2 2 2 2 2 3 3
2 1 1 0 1 0 0 0 0 1 1 1 1 1 1 1 1 2 2 3 3 3 3 3 3 3 3 3 3 3 3 3 3 3 3 4 3 3 2 2 2 3 3
1 1 1 0 0 1 0 0 0 1 1 1 1 1 1 1 2 2 3 3 3 3 3 3 3 3 3 3 4 4 4 4 4 4 4 4 3 4 3 2 3 3 3
1 0 0 0 1 1 1 1 1 1 2 2 1 2 2 2 3 3 3 3 3 3 3 3 3 4 3 4 4 4 4 4 4 5 5 5 4 4 3 3 3 3 3
1 1 1 1 1 1 1 1 2 2 2 2 2 2 2 3 3 3 3 3 3 3 3 3 3 4 4 4 4 4 4 4 4 4 4 4 5 5 4 4 4 4 3
2 2 2 2 1 1 1 1 2 2 2 2 2 3 3 3 3 3 3 3 3 3 3 3 4 4 4 4 4 3 4 4 4 4 4 4 5 6 5 4 4 4 3
3 3 2 2 2 2 2 2 2 3 2 3 3 3 3 3 3 3 3 3 3 3 3 3 3 4 4 7 7 5 3 4 4 4 4 4 5 6 7 8 7 6 5
3 3 3 3 3 2 2 2 3 3 2 3 3 3 3 4 4 4 3 3 3 3 4 4 4 4 6 8 8 7 4 3 4 4 4 4 4 5 4 5 7 7 8
3 3 3 2 2 2 1 2 2 2 3 3 3 3 3 4 4 4 4 4 3 3 4 4 4 4 6 8 8 7 4 3 4 4 4 5 4 5 5 4 4 4 5
3 3 2 2 1 2 1 1 2 2 3 3 4 4 4 4 4 4 4 4 3 4 4 4 4 4 5 8 8 7 3 3 4 4 4 4 5 7 7 5 4 5 5
1 1 1 1 1 2 1 1 2 3 4 4 5 4 4 4 5 5 5 4 4 4 4 5 4 4 5 7 8 6 3 3 4 3 4 6 6 8 8 4 4 6 5
1 1 1 1 2 2 1 2 3 4 5 5 5 5 4 4 5 4 4 3 4 4 4 4 4 4 5 7 8 8 3 3 4 4 3 4 7 8 8 7 5 7 6
2 1 1 2 2 1 1 3 4 4 4 4 4 4 4 4 4 4 4 3 3 3 4 4 4 4 4 6 7 9 7 6 4 4 3 4 7 8 8 6 6 8 6
2 2 2 3 3 2 2 3 4 4 4 4 4 4 5 4 4 4 4 3 3 3 3 3 4 4 3 5 9 9 9 9 5 4 6 7 8 7 5 6 7 5 3
2 2 1 2 3 3 3 4 4 4 3 4 4 4 4 4 3 3 3 3 3 3 4 4 4 4 4 4 4 4 5 7 6 4 6 7 6 5 4 4 4 2 2
2 2 2 3 4 4 4 4 3 3 3 4 4 4 4 4 4 4 4 4 4 5 5 4 4 4 5 6 9 6 4 3 4 3 2 2 2 2 2 2 2 2 2
2 2 2 3 4 3 4 4 3 2 3 4 4 3 3 3 3 3 4 7 7 9 10 9 7 6 8 10 10 10 9 9 7 3 2 2 2 3 3 3 3 2 3
Wind_Direction
184 105 96 90 87 91 101 108 99 79 88 111 125 109 75 24 35 55 50 48 33 29 76 83 119 117 114 120 103 115 119 76 95 84 21 350 349 352 332 8 48 13 4
161 124 103 100 102 110 124 130 131 117 108 128 149 160 149 156 64 28 23 36 38 21 33 87 129 107 104 102 111 111 137 152 132 131 121 333 328 337 323 319 271 321 344
182 176 147 121 111 130 175 164 165 141 120 95 94 81 61 37 24 11 357 7 29 48 22 33 133 126 139 182 203 184 160 193 251 153 151 173 221 299 306 301 305 296 276
174 165 154 133 146 212 193 144 139 118 106 105 110 125 138 194 249 262 297 323 358 37 36 20 282 158 146 180 219 195 184 169 211 278 283 233 186 189 268 295 298 290 269
179 174 173 174 164 76 87 132 131 112 97 93 122 140 163 223 305 327 312 287 312 3 25 21 321 230 209 205 221 218 196 189 202 215 238 261 275 222 203 253 277 299 281
181 174 169 142 112 61 56 58 87 88 99 111 107 128 175 222 277 307 288 281 279 311 353 340 322 271 242 234 233 226 218 219 220 229 218 199 197 210 206 227 248 267 277
180 169 162 153 144 97 84 53 108 118 122 134 157 198 208 216 235 249 249 271 279 271 263 273 266 279 266 254 251 236 237 233 226 224 237 233 228 219 219 209 238 266 280
185 182 184 182 188 194 180 203 232 274 216 181 235 281 289 222 247 264 270 260 266 269 262 249 246 253 265 259 253 249 246 242 241 244 241 244 242 231 221 206 201 251 273
186 192 184 179 188 198 209 218 245 298 299 261 293 274 293 273 272 284 284 283 297 297 292 271 253 253 263 259 245 247 250 245 244 247 246 246 246 237 234 221 204 201 237
146 174 196 201 199 207 219 226 261 282 316 316 300 309 308 310 307 299 293 294 297 306 296 289 276 263 259 257 241 248 247 240 251 252 244 253 257 245 239 230 231 223 220
190 198 222 233 214 199 174 226 300 338 343 328 309 314 314 325 324 301 296 297 298 295 286 280 280 273 264 254 244 247 243 239 249 252 246 252 253 244 243 240 236 238 229
184 179 218 252 32 6 342 273 339 334 318 315 313 302 317 327 311 303 303 303 296 290 285 284 282 279 277 266 249 250 247 236 241 246 244 248 246 238 237 239 242 243 241
178 8 351 305 284 317 339 344 348 326 317 319 311 311 317 314 299 296 299 298 293 296 299 296 287 285 281 276 263 249 250 246 245 244 243 247 237 238 239 237 240 246 253
219 236 265 275 287 313 332 339 337 330 326 321 306 299 298 293 288 291 293 292 290 288 291 292 289 288 282 278 276 262 254 253 256 256 252 248 233 232 235 237 239 243 250
232 242 249 259 278 305 317 324 321 326 330 316 302 293 295 296 297 297 296 297 299 296 291 291 296 296 287 275 276 267 258 256 259 263 261 259 260 249 242 243 237 237 243
247 254 259 258 261 269 276 297 300 309 317 303 290 295 301 302 300 298 301 303 301 302 299 290 292 295 293 296 289 285 269 266 258 263 269 267 262 265 259 257 255 246 241
255 256 254 249 252 256 257 262 282 300 302 297 295 297 299 297 298 301 303 297 293 297 296 293 292 289 292 299 296 288 282 267 260 257 261 269 272 276 271 269 268 261 260
253 256 254 261 265 260 268 283 291 294 292 294 295 293 294 294 297 296 293 291 286 283 282 286 286 288 294 303 304 301 291 273 268 264 256 254 261 261 266 265 269 266 263
249 250 246 249 253 258 263 282 290 291 292 293 293 290 282 281 285 285 283 284 289 285 282 283 281 283 295 302 304 307 287 278 277 275 270 264 256 262 268 262 262 271 277
268 280 291 289 257 265 248 251 274 280 280 284 285 285 278 274 274 275 278 279 280 279 285 290 285 281 286 293 299 303 286 277 280 280 273 273 276 273 269 253 246 260 268
311 317 297 284 275 272 239 257 271 272 280 289 290 289 281 274 270 272 278 282 280 284 284 285 287 282 284 291 295 294 289 275 277 280 279 277 282 285 281 272 251 260 267
314 311 301 296 298 284 240 269 279 287 295 293 291 292 285 278 279 277 279 279 273 275 277 283 290 287 286 291 292 290 290 291 276 273 277 278 284 283 283 282 279 278 276
290 295 283 296 304 298 261 268 285 297 301 298 295 294 291 282 282 276 276 278 267 264 273 275 281 291 293 291 293 291 291 293 290 280 284 285 285 284 283 289 295 292 276
283 284 272 282 292 296 291 276 283 290 291 290 293 292 291 286 283 276 270 267 261 261 268 270 275 282 286 284 284 283 285 286 288 287 285 284 287 290 294 296 297 290 280
282 264 255 266 280 291 291 288 287 286 288 288 288 290 289 286 283 277 265 266 255 253 261 261 265 271 274 278 287 293 288 284 280 291 292 289 291 285 290 294 292 290 288
270 272 273 276 284 288 289 289 285 273 272 283 288 284 284 285 282 284 294 287 282 285 280 277 277 276 279 290 291 292 291 292 290 286 267 267 265 264 267 271 276 276 274